Location: Unspecified
(51.0950°N, 12.9690°E)
Time: 14:56:42
(UTC+00:00)

Tsikada Rocket - Pass Details

Date: 28 October 2021
Orbit: 958 x 1009 km, 82.9° (Epoch: 26 November)

Event Time Altitude Azimuth Distance (km) Brightness Sun altitude
Rises 19:01:10 0° 348° (NNW) 3,656 7.4 -30.4°
Reaches altitude 10° 19:03:40 10° 347° (NNW) 2,709 6.6 -30.8°
Maximum altitude 19:09:50 72° 264° (W) 1,018 4.1 -31.7°
Enters shadow 19:09:53 72° 259° (W) 1,018 4.1 -31.8°
